Location: Newark
(49.8969°N, 3.3422°E)
Time: 19:08:16
(UTC+00:00)

deb Explorer IX - Pass Details

Date: 22 January 2020
Orbit: 549 x 1099 km, 38.8° (Epoch: 18 February)

Event Time Altitude Azimuth Distance (km) Brightness Sun altitude
Rises 03:58:54 0° 265° (W) 3,823 - -34.1°
Reaches altitude 10° 04:02:55 10° 245° (WSW) 2,786 - -33.4°
Maximum altitude 04:06:36 15° 212° (SSW) 2,316 - -32.8°
Drops below altitude 10° 04:10:04 10° 178° (S) 2,584 - -32.3°
Exits shadow 04:11:02 - 171° (S) 2,767 ? -32.1°
Sets 04:13:35 0° 156° (SSE) 3,401 ? -31.7°
